Tracking 27380 objects as of 5-Jun-2023
HD Live streaming from Space Station
objects crossing your sky now

ONEWEB-0532

Track ONEWEB-0532 now!
10-day predictions
ONEWEB-0532 is classified as:


NORAD ID: 55140
Int'l Code: 2023-004A
Perigee: 933.3 km
Apogee: 935.8 km
Inclination: 87.3 °
Period: 103.6 minutes
Semi major axis: 7305 km
RCS: Unknown
Launch date: January 10, 2023
Source: United Kingdom (UK)
Launch site: AIR FORCE WESTERN TEST RANGE (AFWTR)
Your satellite tracking list
Your tracking list is empty




NASA's NSSDC Master Catalog

Two Line Element Set (TLE):
1 55140U 23004A   23156.58335648 -.00692030  00000-0 -58995+0 0  9990
2 55140  87.3034 227.3164 0001724  78.5599 206.0838 13.90347304 21480
Source of the keplerian elements: AFSPC